Погода в Лальске

Россия / Кировская область     60°44′06″N   47°35′11″E
темп.,
°C
ветер,
м/с
пор.,
м/с
влажн.,
%
обл.,
%
осадки,
мм/ч
давл.,
гПа
погр.,
м
12 мая, ср
ср1200:00+10ююз228640 0.0 103026
03:00+9юз228767 0.0 103027
06:00+12юз24748 0.0 1030160
09:00+18юз235522 0.0 1030578
12:00+21юз334511 0.0 10281014
15:00+22юз234224 0.0 10281190
18:00+21ююз225919 0.0 102740
21:00+14ююз127321 0.0 102711
13 мая, чт
чт1300:00+12ю11764 0.0 102710
03:00+11ю11760 0.0 102710
06:00+15ю12680 0.0 1027111
09:00+21ю23525 0.0 1027541
12:00+24ю254220 0.0 10252472
15:00+21ююз115922 0.0 102416
18:00+19ю116335 0.0 102213
21:00+16юв22785 0.0 102220
14 мая, пт
пт1400:00+15ююв247532 0.0 102185
03:00+13ю2484100 0.0 102062
06:00+15юв21079100 0.0 1019297
09:00+20ююз4759100 0.0 1018990
12:00+19юз4767100 0.0 10181179
15:00+23юз494276 0.0 10172328
18:00+20зюз3857100 0.0 1017563
21:00+15з22815 0.0 101730
15 мая, сб
сб1500:00+13зюз2289100 0.0 101719
03:00+11юз11915 0.0 101810
06:00+15юз237079 0.0 1017183
09:00+20ююз235897 0.0 1016712
12:00+20зюз356586 0.6 1016802
15:00+23ююз244988 0.8 10151659
18:00+22в2362100 0.0 101356
21:00+18вюв41277100 0.4 1011362
16 мая, вс
вс1600:00+17ю31285100 1.4 1010450
03:00+14ююз310910 1.4 1010263
06:00+17ю3108525 0.0 1010416
09:00+22ююз596191 0.0 10091019
12:00+25юз6114734 0.1 10082511
15:00+24юз6124642 0.1 10062514
18:00+20зюз5106712 1.2 1007885
21:00+16юз412815 1.2 1008496